Location: Observatorio del Centro Ecologico de Sonora
(29.0667°N, 110.9333°W)
Time: 18:11:14
(UTC-07:00)

ISS - Visible Passes

Search period start: 17 November 2017 00:00
Search period end: 27 November 2017 00:00
Orbit: 401 x 407 km, 51.6° (Epoch: 18 November)

Date Brightness Start Highest point End Pass type
(mag) Time Alt. Az. Time Alt. Az. Time Alt. Az.
17 Nov -3.0 06:04:49 10° NNW 06:07:59 48° NE 06:11:08 10° ESE visible
18 Nov -1.9 05:14:49 20° NNE 05:15:38 22° NE 05:18:16 10° E visible
19 Nov -3.5 05:57:48 19° WNW 05:59:50 47° SW 06:02:58 10° SSE visible
20 Nov -3.1 05:08:11 51° ESE 05:08:11 51° ESE 05:10:49 10° SE visible
21 Nov -1.9 05:51:19 15° WSW 05:51:30 15° SW 05:53:30 10° SSW visible
22 Nov -1.1 05:01:47 14° SSE 05:01:47 14° SSE 05:02:20 10° SSE visible
23 Nov -2.9 19:02:35 10° SSW 19:04:54 40° S 19:04:54 40° S visible
24 Nov -2.4 18:10:52 10° S 18:13:33 24° SE 18:15:13 16° E visible
24 Nov -0.4 19:47:27 10° W 19:47:54 12° W 19:47:54 12° W visible
25 Nov -2.8 18:54:23 10° WSW 18:57:30 41° NW 18:58:06 36° NNW visible
26 Nov -3.9 18:01:51 10° SW 18:05:08 81° SE 18:08:13 11° NE visible
